Regional Weather Roundup
Issued by NWS Sioux Falls, SD

Home | Current Version | Previous Version | Graphics & Text | Print | Product List | Glossary Off
Versions: 1 2 3 4 5 6 7 8 9 10 11 12 13 14 15 16 17 18 19 20 21 22 23 24 25 26 27 28 29 30 31 32 33 34 35 36 37 38 39 40 41 42 43 44 45 46 47 48 49 50

000
ASUS43 KFSD 301410
RWRFSD

WEATHER ROUNDUP FOR SE SOUTH DAKOTA/SW MINNESOTA/NW IOWA
NATIONAL WEATHER SERVICE SIOUX FALLS SD
900 AM CDT FRI SEP 30 2016

NOTE: "FAIR" INDICATES FEW OR NO CLOUDS BELOW 12,000 FEET WITH NO
SIGNIFICANT WEATHER AND OR OBSTRUCTIONS TO VISIBILITY.


SDZ038>040-050-052>070-301500-
SOUTHEAST SOUTH DAKOTA

CITY           SKY/WX    TMP DP  RH WIND       PRES   REMARKS
BROOKINGS      SUNNY     53  49  86 SE8       30.33S
CHAMBERLAIN    MOSUNNY   52  49  90 SE6       30.26S
HURON          CLOUDY    50  46  86 S9G17     30.30R
MADISON        FAIR      46  46 100 SE3       30.34R
MITCHELL       SUNNY     50  46  86 E5        30.31S
SIOUX FALLS    MOSUNNY   52  47  83 CALM      30.34S
WINNER         FAIR      54  46  74 S15       30.24S
YANKTON        SUNNY     48  46  93 E6        30.31S
$$

MNZ071-072-080-081-089-090-097-098-301500-
SOUTHWEST MINNESOTA

CITY           SKY/WX    TMP DP  RH WIND       PRES   REMARKS
FAIRMONT       MOSUNNY   50  50 100 CALM      30.34F FOG
JACKSON        SUNNY     52  50  93 NE5       30.34F FOG
LUVERNE        SUNNY     46  45  93 CALM      30.35S
MARSHALL       FOG       46  45  96 S3        30.36S VSB 1/4
MONTEVIDEO     PTSUNNY   52  52 100 SE3       30.37S FOG
PIPESTONE      SUNNY     54  48  82 E3        30.34S
REDWOOD FALLS  FOG       48  47  96 E3        30.36S VSB<1/4
TRACY          SUNNY     49  49 100 CALM      30.36S FOG
WINDOM         SUNNY     54  52  94 CALM      30.34F FOG
WORTHINGTON    SUNNY     50  49  96 N3        30.35F
$$

IAZ001>003-012>014-020>022-031-032-NEZ013-014-SDZ071-301500-
NORTHWEST IOWA

CITY           SKY/WX    TMP DP  RH WIND       PRES   REMARKS
CHEROKEE       SUNNY     47  47 100 CALM      30.32F
DENISON        SUNNY     50  48  93 NE5       30.30S
ESTHERVILLE    SUNNY     51  51 100 N3        30.34R
LE MARS        SUNNY     48  46  93 NE5       30.34S
SHELDON        SUNNY     54  52  94 E5        30.32S
SIOUX CITY     SUNNY     50  48  93 CALM      30.33S
SPENCER        SUNNY     52  50  93 CALM      30.33S
STORM LAKE     SUNNY     55  52  88 NE3       30.32S
$$

ABBREVIATIONS USED IN REMARKS
   TC - TEMPERATURE IN CELSIUS
  WCI - WIND CHILL INDEX
   HX - HEAT INDEX
  VSB - VISIBILITY




USA.gov is the U.S. government's official web portal to all federal, state and local government web resources and services.